DW4957 Weather Reports


time (UTC)temp
C
wind
direction
speed
KPH
gust
KPH
rain 1hr
cm
rain 24hr
cm
rain mn
cm
humidity
%
barometer
mb
20180623041718 18 0 0.0 0.0 0.00 0.20 0.00 45 1019.0
20180623035719 18 0 0.0 0.0 0.00 0.20 0.00 45 1019.0
20180623034719 18 0 0.0 0.0 0.00 0.20 0.00 45 1019.0
20180623031719 18 0 0.0 0.0 0.00 0.20 0.00 44 1019.0
20180623030720 18 0 0.0 0.0 0.00 0.20 0.00 44 1019.0
20180623023716 19 0 0.0 0.0 0.00 0.20 0.00 43 1019.0
20180623015715 18 0 0.0 0.0 0.00 0.30 0.00 42 1019.0
20180623014715 19 0 0.0 0.0 0.00 0.30 0.00 41 1019.0
20180623013715 19 0 0.0 0.0 0.00 0.30 0.00 41 1019.0
20180623012715 19 0 0.0 0.0 0.00 0.53 0.00 41 1019.0
20180623011715 19 0 0.0 0.0 0.00 0.64 0.00 40 1019.0
20180623010714 19 0 0.0 0.0 0.00 0.64 0.00 40 1019.0
20180623004715 19 0 0.0 0.0 0.00 0.64 0.00 39 1019.0
20180623003715 19 0 0.0 0.0 0.00 0.64 0.00 39 1020.0
20180623002716 19 0 0.0 0.0 0.00 0.64 0.00 38 1020.0
20180623001715 19 0 0.0 0.0 0.00 0.64 0.00 37 1020.0
20180622235715 19 0 0.0 0.0 0.00 0.64 0.00 37 1020.0
20180622230714 20 0 0.0 0.0 0.00 0.64 0.00 34 1020.0
20180622225716 20 0 0.0 0.0 0.00 0.64 0.64 34 1020.0
20180622224715 20 0 0.0 0.0 0.00 0.74 0.64 34 1020.0
20180622223717 20 0 0.0 0.0 0.00 0.74 0.64 34 1021.0
20180622222716 20 0 0.0 0.0 0.00 0.74 0.64 33 1021.0
20180622221716 21 0 0.0 0.0 0.00 0.74 0.64 33 1021.0
20180622220714 21 0 0.0 0.0 0.00 0.74 0.64 33 1021.0
20180622215716 21 0 0.0 0.0 0.00 0.74 0.64 32 1021.0
20180622214716 21 0 0.0 0.0 0.00 0.74 0.64 32 1021.0
20180622213716 21 0 0.0 0.0 0.00 0.74 0.64 32 1021.0
20180622211716 21 0 0.0 0.0 0.00 0.84 0.64 32 1021.0
20180622210715 21 0 0.0 0.0 0.00 0.84 0.64 30 1020.0
20180622205716 22 0 0.0 0.0 0.00 0.84 0.64 29 1020.0
20180622204716 22 0 0.0 0.0 0.00 0.84 0.64 29 1020.0
20180622200716 22 0 0.0 0.0 0.00 0.84 0.64 27 1020.0
20180622195716 23 0 0.0 0.0 0.00 0.84 0.64 26 1020.0
20180622194716 23 0 0.0 0.0 0.00 0.84 0.64 26 1020.0
20180622193715 23 0 0.0 0.0 0.00 0.84 0.64 26 1020.0
20180622192715 23 0 0.0 0.0 0.00 0.84 0.64 26 1020.0
20180622190714 23 0 0.0 0.0 0.00 0.84 0.64 25 1020.0
20180622185716 24 0 0.0 0.0 0.00 0.84 0.64 24 1020.0
20180622184716 24 0 0.0 0.0 0.00 0.84 0.64 24 1020.0
20180622182716 25 0 0.0 0.0 0.00 0.84 0.64 23 1020.0
20180622181715 25 0 0.0 0.0 0.00 0.84 0.64 23 1020.0
20180622180714 25 0 0.0 0.0 0.00 0.84 0.64 23 1020.0
20180622175716 26 0 0.0 0.0 0.00 0.84 0.64 22 1020.0
20180622174715 26 0 0.0 0.0 0.00 0.84 0.64 22 1020.0
20180622173716 27 0 0.0 0.0 0.00 0.84 0.64 22 1020.0
20180622172716 27 0 0.0 0.0 0.00 0.84 0.64 21 1020.0
20180622170715 28 0 0.0 0.0 0.00 0.84 0.64 21 1020.0
20180622162716 28 0 0.0 0.0 0.00 0.84 0.64 21 1021.0
20180622161715 30 0 0.0 0.0 0.00 0.84 0.64 21 1021.0
20180622160714 29 0 0.0 0.0 0.00 0.84 0.64 21 1020.0
20180622155716 29 0 0.0 0.0 0.00 0.84 0.64 21 1020.0
20180622154716 29 0 0.0 0.0 0.00 0.84 0.64 21 1020.0
20180622153716 30 0 0.0 0.0 0.00 0.84 0.64 21 1020.0
20180622152716 30 0 0.0 0.0 0.00 0.84 0.64 21 1020.0
20180622151715 30 0 0.0 0.0 0.00 0.84 0.64 20 1020.0
20180622150714 31 0 0.0 0.0 0.00 0.84 0.64 21 1020.0
20180622145716 31 0 0.0 0.0 0.00 0.84 0.64 21 1021.0
20180622144716 30 0 0.0 0.0 0.00 0.84 0.64 21 1021.0
20180622143716 30 0 0.0 0.0 0.00 0.84 0.64 22 1021.0
20180622141716 31 0 0.0 0.0 0.00 0.84 0.64 23 1020.0
20180622135715 30 0 0.0 0.0 0.00 0.84 0.64 25 1021.0
20180622134716 30 0 0.0 0.0 0.00 0.84 0.64 26 1021.0
20180622133716 29 0 0.0 0.0 0.00 0.84 0.64 27 1021.0
20180622132715 28 0 0.0 0.0 0.00 0.84 0.64 29 1021.0
20180622131716 27 0 0.0 0.0 0.00 0.84 0.64 29 1021.0
20180622124716 26 0 0.0 0.0 0.00 0.84 0.64 30 1021.0
20180622123716 27 0 0.0 0.0 0.00 0.84 0.64 29 1021.0
20180622122716 27 0 0.0 0.0 0.00 0.84 0.64 28 1021.0
20180622121716 27 0 0.0 0.0 0.00 0.84 0.64 28 1021.0
20180622115717 28 0 0.0 0.0 0.00 0.84 0.64 23 1021.0
20180622114716 30 0 0.0 0.0 0.00 0.84 0.64 24 1021.0
20180622112716 28 0 0.0 0.0 0.00 0.84 0.64 23 1021.0
20180622110715 30 0 0.0 0.0 0.00 0.84 0.64 23 1021.0
20180622104716 31 0 0.0 0.0 0.00 0.84 0.64 25 1021.0
20180622103716 31 0 0.0 0.0 0.00 0.84 0.64 27 1021.0
20180622101716 29 0 0.0 0.0 0.00 0.84 0.64 30 1021.0
20180622100715 28 0 0.0 0.0 0.00 0.84 0.64 32 1021.0
20180622094716 25 0 0.0 0.0 0.00 0.84 0.64 36 1021.0
20180622093716 24 0 0.0 0.0 0.00 0.84 0.64 36 1021.0
20180622092719 24 0 0.0 0.0 0.00 0.84 0.64 37 1021.0
20180622091716 25 0 0.0 0.0 0.00 0.84 0.64 36 1021.0
20180622090716 26 0 0.0 0.0 0.00 0.84 0.64 36 1021.0
20180622085716 26 0 0.0 0.0 0.00 0.84 0.64 40 1021.0
20180622081716 21 0 0.0 0.0 0.10 0.84 0.64 52 1021.0
20180622080714 21 0 0.0 0.0 0.10 0.84 0.64 53 1021.0
20180622075716 21 0 0.0 0.0 0.10 0.84 0.64 54 1021.0
20180622074717 20 0 0.0 0.0 0.10 0.94 0.64 57 1021.0
20180622073716 18 0 0.0 0.0 0.00 0.94 0.53 54 1021.0
20180622072718 18 0 0.0 0.0 0.00 0.94 0.53 54 1021.0
20180622071717 18 0 0.0 0.0 0.00 0.94 0.53 54 1021.0
20180622070715 18 0 0.0 0.0 0.00 1.04 0.53 54 1021.0
20180622065717 18 0 0.0 0.0 0.00 1.04 0.53 54 1021.0
20180622064717 18 0 0.0 0.0 0.00 1.04 0.53 54 1021.0
20180622063716 18 0 0.0 0.0 0.00 1.12 0.53 54 1021.0
20180622061716 18 0 0.0 0.0 0.00 1.12 0.53 53 1022.0
20180622055717 18 0 0.0 0.0 0.00 1.12 0.53 53 1021.0
20180622051716 18 0 0.0 0.0 0.10 1.32 0.53 53 1021.0
20180622050716 18 0 0.0 0.0 0.10 1.32 0.53 52 1021.0
20180622044717 18 0 0.0 0.0 0.00 1.32 0.43 52 1021.0